Location: Anjeux
(47.8815°N, 6.2076°E)
Time: 13:39:11
(UTC+00:00)

AO-27 - Visible Passes

Search period start: 09 December 2021 00:00
Search period end: 19 December 2021 00:00
Orbit: 786 x 796 km, 98.9° (Epoch: 08 December)

Date Brightness Start Highest point End Pass type
(mag) Time Alt. Az. Time Alt. Az. Time Alt. Az.
09 Dec 10.6 05:47:06 10° NE 05:50:16 16° E 05:53:24 10° SE visible
09 Dec 8.2 17:07:48 10° SE 17:12:33 36° ENE 17:17:19 10° N visible
09 Dec 9.1 18:47:13 10° SSW 18:52:00 36° W 18:56:50 10° NNW visible
10 Dec 8.8 16:39:42 10° ESE 16:43:40 22° ENE 16:47:38 10° N visible
10 Dec 8.1 18:17:31 10° S 18:22:42 63° WSW 18:27:55 10° NNW visible
11 Dec 9.6 06:27:04 10° NNE 06:31:50 34° E 06:36:33 10° SSE visible
11 Dec 9.2 16:12:19 10° E 16:14:54 14° NE 16:17:29 10° NNE visible
11 Dec 7.5 17:48:17 10° SSE 17:53:30 76° ENE 17:58:46 10° NNW visible
11 Dec 10.3 19:30:17 10° SW 19:33:34 17° W 19:36:52 10° NW visible
12 Dec 10.5 05:58:35 10° NE 06:02:23 20° E 06:06:08 10° SE visible
12 Dec 7.9 17:19:30 10° SE 17:24:27 44° ENE 17:29:25 10° N visible
12 Dec 9.5 18:59:34 10° SSW 19:04:04 29° W 19:08:36 10° NW visible
13 Dec 10.9 05:31:28 10° ENE 05:32:47 11° E 05:34:05 10° E visible
13 Dec 8.5 16:51:11 10° ESE 16:55:30 27° ENE 16:59:51 10° N visible
13 Dec 8.5 18:29:38 10° S 18:34:42 50° W 18:39:49 10° NNW visible
14 Dec 9.1 06:38:53 10° NNE 06:43:52 43° E 06:48:48 10° S visible
14 Dec 9.1 16:23:28 10° E 16:26:41 17° NE 16:29:56 10° NNE visible
14 Dec 7.6 18:00:13 10° SSE 18:05:28 87° WSW 18:10:45 10° NNW visible
14 Dec 10.5 19:43:17 10° WSW 19:45:42 13° W 19:48:07 10° WNW visible
15 Dec 10.2 06:10:13 10° NE 06:14:28 25° E 06:18:42 10° SSE visible
15 Dec 7.7 17:31:16 10° SE 17:36:21 55° ENE 17:41:29 10° N visible
15 Dec 9.8 19:12:01 10° SW 19:16:09 23° W 19:20:18 10° NW visible
16 Dec 10.7 05:42:15 10° ENE 05:44:56 14° E 05:47:36 10° ESE visible
16 Dec 8.3 17:02:45 10° SE 17:07:22 32° ENE 17:12:00 10° N visible
16 Dec 8.9 18:41:49 10° SSW 18:46:44 40° W 18:51:41 10° NNW visible
17 Dec 8.9 16:34:46 10° ESE 16:38:30 20° ENE 16:42:15 10° NNE visible
17 Dec 7.9 18:12:14 10° S 18:17:27 71° WSW 18:22:42 10° NNW visible
17 Dec 10.8 19:57:32 10° W 19:57:51 10° W 19:58:10 10° W visible
18 Dec 9.8 06:21:56 10° NNE 06:26:33 31° E 06:31:06 10° SSE visible
18 Dec 7.6 17:43:06 10° SSE 17:48:17 68° ENE 17:53:31 10° N visible
18 Dec 10.1 19:24:37 10° SW 19:28:15 19° W 19:31:54 10° NW visible
